Location: Colle Santa Colomba
(42.0333°N, 12.5667°E)
Time: 22:15:15
(UTC+00:00)

Cosmos 2173 Rocket - Pass Details

Date: 25 October 2021
Orbit: 945 x 1000 km, 83.0° (Epoch: 05 December)

Event Time Altitude Azimuth Distance (km) Brightness Sun altitude
Rises 18:53:43 0° 197° (SSW) 3,631 7.1 -30.4°
Reaches altitude 10° 18:56:14 10° 201° (SSW) 2,696 6.4 -30.9°
Maximum altitude 19:02:19 59° 281° (W) 1,117 4.4 -32.0°
Drops below altitude 10° 19:08:32 10° 0° (N) 2,751 6.5 -33.1°
Sets 19:11:08 0° 5° (N) 3,711 7.2 -33.6°
